Regional Weather Roundup
Issued by NWS

Home | Current Version | Previous Version | Graphics & Text | Print | Product List | Glossary On
Versions: 1 2 3 4 5 6 7 8 9 10 11 12 13 14 15 16 17 18 19 20 21 22 23 24 25 26 27 28 29 30 31 32 33 34 35 36 37 38 39 40 41 42 43 44 45 46 47 48 49 50
000
ASUS45 KBOU 251307
RWRCO

WEATHER ROUNDUP FOR COLORADO
NATIONAL WEATHER SERVICE DENVER/BOULDER CO
600 AM MST TUE NOV 25 2014

NOTE: "FAIR" INDICATES FEW OR NO CLOUDS BELOW 12000 FEET WITH NO
SIGNIFICANT WEATHER AND/OR OBSTRUCTIONS TO VISIBILITY.

COZ001>005-013-030-031-251400-
...NORTHWEST COLORADO...

CITY           SKY/WX    TMP DP  RH WIND       PRES   REMARKS
CRAIG          CLOUDY    17  11  77 E3        30.26F
HAYDEN         CLOUDY    18  10  73 E7        30.25S WCI   8
MEEKER         CLOUDY    17  12  80 CALM      30.30F
MOUNT WERNER   NOT AVBL
STEAMBOAT SPGS CLOUDY    13  10  90 SE3       30.24S
WALDEN         CLOUDY    19   9  63 S13       30.10F WCI   7
$$

COZ006>008-011-251400-
...WEST CENTRAL VALLEYS...

CITY           SKY/WX    TMP DP  RH WIND       PRES   REMARKS
GRAND JUNCTION CLOUDY    25  15  66 SE12      30.38F WCI  14
MONTROSE       CLOUDY    20  12  71 SW3       30.40F
EAGLE          MOCLDY    12  10  92 CALM      30.34R
RIFLE          CLOUDY    16  12  84 SE3       30.38S
DELTA          CLOUDY    22  17  80 CALM      30.42S
NUCLA          CLOUDY    23  10  58 SE5       30.44S WCI  17
$$

COZ017>023-064>068-251400-
...SOUTHWEST COLORADO...

CITY           SKY/WX    TMP DP  RH WIND       PRES   REMARKS
DURANGO        CLEAR     10   6  84 NE6       30.36R WCI   0
CORTEZ         MOCLDY    13   8  81 CALM      30.41R
PAGOSA SPRINGS CLEAR     12   5  73 CALM      30.34R
TELLURIDE      NOT AVBL
WOLF CREEK PAS PTCLDY     1  -4  78 MISG      30.20S
$$

COZ009-010-012-014-032>034-037-058>063-251400-
...CENTRAL COLORADO...

CITY           SKY/WX    TMP DP  RH WIND       PRES   REMARKS
ASPEN          CLOUDY    13   7  77 CALM      30.27F
BUENA VISTA    CLOUDY    20   4  50 NW6       30.15F WCI  12
COPPER MTN     CLOUDY     9   1  72 W26G37    30.10R WCI -13
BERTHOUD PASS  NOT AVBL
COTTONWOOD PAS CLOUDY    23   1  39 W20G44    30.07F WCI   8
GUNNISON       MOCLDY     0  -2  92 CALM      30.36F
KREMMLING      CLOUDY    21  10  63 SW9       30.24S WCI  11
LEADVILLE      CLOUDY    11   1  64 N9G21     30.17F WCI  -2
MONARCH PASS   CLOUDY     1  -2  85 MISG      30.12F
SALIDA         CLOUDY    25   5  43 W12G21    30.24F WCI  14
SUNLIGHT         N/A    N/A N/A N/A CALM      30.21F
WILKERSON PASS NOT AVBL
$$

COZ069>075-251400-
...SAN LUIS VALLEY/SANGRE DE CRISTO MOUNTAINS...

CITY           SKY/WX    TMP DP  RH WIND       PRES   REMARKS
ALAMOSA        CLOUDY     8   0  69 S3        30.29S
LA VETA PASS   MOCLDY    10   1  67 MISG      30.09S
SAGUACHE       NOT AVBL
$$

COZ035-036-038>040-251400-
...NORTHERN COLORADO FRONT RANGE...

CITY           SKY/WX    TMP DP  RH WIND       PRES   REMARKS
DENVER INTL AP CLOUDY    27   9  46 SW15      30.04F WCI  15
DMNS CITY PARK   N/A     26   8  46 SE5       30.05F WCI  21
AURORA         MOCLDY    25   8  48 S9        30.05F WCI  15
FRONT RANGE AP CLOUDY    30  12  47 SW13      30.06S WCI  20
ERIE MUNI ARPT CLOUDY    33   7  33 W5        30.04S WCI  29
BOULDER MUN AP CLOUDY    36   7  30 W15G24    30.02F
CENTENNIAL     CLOUDY    33   4  29 W10       30.04F WCI  25
BROOMFIELD     MOCLDY    36   7  30 W29G43    30.03F
FORT COLLINS   CLOUDY    21  16  79 SE7       30.02F WCI  13
LONGMONT       CLOUDY    25  16  69 CALM      30.04F
$$

COZ041-046-047-076>085-087-088-251400-
...PIKES PEAK/PALMER DIVIDE AND SOUTHERN FOOTHILLS...

CITY           SKY/WX    TMP DP  RH WIND       PRES   REMARKS
COLO. SPRINGS  MOCLDY    20  10  65 VRB6      30.10F WCI  12
A. F. ACADEMY  CLOUDY    29   3  33 NE7       30.07F WCI  22
ELLICOTT       NOT AVBL
FALCON         NOT AVBL
FORT CARSON    MOCLDY    17  10  74 NW7       30.09F WCI   7
LIMON          PTCLDY     9   5  84 N3        30.10F
MONUMENT HILL  CLOUDY    23   9  54 SW10      30.05F WCI  12
TRINIDAD       PTCLDY    19   8  62 W17       30.17F WCI   4
$$

COZ042>045-048>051-090-091-251400-
...NORTHEAST COLORADO...

CITY           SKY/WX    TMP DP  RH WIND       PRES   REMARKS
GREELEY ARPT   CLOUDY    18   9  68 CALM      30.04F
AKRON          MOCLDY    25  13  60 S12       30.05F WCI  14
BURLINGTON     CLEAR     17  10  74 SW10      30.13F WCI   5
WRAY           PTCLDY    17  14  86 SW8       30.10F WCI   7
STERLING       MOCLDY    23  19  86 S9        30.04F WCI  13
HOLYOKE        PTCLDY    21  18  86 SW9       30.07F WCI  11
FORT MORGAN    MOCLDY    21  13  71 W5        30.05F WCI  14
$$

COZ086-089-092>099-251400-
...SOUTHEAST COLORADO...

CITY           SKY/WX    TMP DP  RH WIND       PRES   REMARKS
PUEBLO         PTCLDY    17  12  80 CALM      30.14F
LA JUNTA       CLEAR     24  17  74 SW12      30.17F WCI  13
LAMAR          CLEAR     13  10  88 SW7       30.19F WCI   3
SPRINGFIELD      N/A     20  16  84 SW10      30.20F WCI   9
$$



USA.gov is the U.S. government's official web portal to all federal, state and local government web resources and services.